STARLINK-11413, 62593

Orbit data source: Space-Track

STARLINK-11413, 62593 is a payload satellite owned by SpaceX/Seattle (US) in LEO that was launched on Mon, 13 Jan 2025 UTC via an FALCON 9 launch vehicle from the Air Force Eastern Test Range (AFETR). Payload-class satellites include a variety of spacecraft equipped with specific instruments for various scientific and technological missions. These include communications satellites like Starlink; space stations such as the ISS; scientific satellites like the Hubble; Earth observation satellites from companies like Planet Labs, Umbra, and HawkEye 360; GPS; miniature CubeSats for education and research; and military/defense satellites.

Loading next visibility...
Identifier
62593, 2025-008G
Orbit
LEO
Last TLE update
7 hours ago
Origin
Manufacturer
SpaceX/Seattle
Mission
Operational Commercial Communications
Bus & Motor
STARLINK V2M, Unknown motor
Mass
730 kg wet, ~700 kg dry
Launch date (UTC)
2025-01-13 (6 months ago)
Launch vehicle
FALCON 9
Launch site
Air Force Eastern Test Range (AFETR)
Object type
Payload
Rocket body
Debris
Shape & HBR
Box + 2 Pan, 29 m
Radar Cross Section
36.964 m², Large (>1 m²)

Expand to show TLE details & history

TLE from 7 hours ago
0 STARLINK-11413
1 62593U 25008G   25182.10749238  .00194886  00000-0  14855-2 0  9993
2 62593  43.0031 202.9073 0002337 260.1073  99.9531 15.70862360 27615
Epoch: 2025-07-01T02:34Z
TLE epoch observation values (Epoch: 2025-07-01T02:34:47.341Z)
Latitude
-0.00002°
Longitude
-115.19767°
Altitude
356.475 km
Speed
7.697 km/s
True Right ascension
13h 31m 37s
True Declination
0° 00' 00"
Sunlit
Object was in daylight at epoch
Visualization orbit readout
Latitude
-20.22777°
Longitude
86.17877°
Altitude
359.642 km
Speed
7.695 km/s
Apparent Right ascension
05h 33m 57s
Apparent Declination
-39° 33' 30"
Sunlit
Object is in daylight
Visualization observer readout
Local Sidereal Time
21:12:45
Azimuth
107.847° ESE
Elevation
-48.621°
Doppler factor
1
Orbital elements
Apogee altitude
359.987 km
Perigee altitude
356.838 km
Semi-major axis
6,736.549 km
Eccentricity
0.00023
Inclination
43.0031°
RAAN
202.9073°
Arg. of periapsis
260.1073°
True anomaly
Unknown
Mean anomaly
99.9531°
Eccentric anomaly
Unknown
Mean motion
3.92543 °/min
Orbital period
91.71 mins
BSTAR
0.0014855
Loading maneuver chart data...
Loading SW <> Apogee altitude chart data...
Loading historical data...
Loading historical data...
Loading historical data...
Loading historical data...
Loading historical data...
Loading historical data...
Loading historical data...

STARLINK-11413 Visibility forecast

Observer location: undefined°, undefined°

Span
Click to sort rows by Start time (UTC) header in descending order
Start Az.
Max El. time (UTC)
Max El. Az.
Max El.
End time (UTC)
End Az.
4 mins2025-07-01 10:41:27.400Z267.481° W2025-07-01 10:43:27.400Z221.493° SW23.671°2025-07-01 10:45:27.400Z161.055° S
4 mins2025-07-02 06:21:27.400Z286.364° WNW2025-07-02 06:22:27.400Z337.646° N38.817°2025-07-02 06:25:27.400Z68.75° E
4 mins2025-07-02 07:57:27.400Z303.532° NW2025-07-02 07:58:27.400Z335.988° NNW34.161°2025-07-02 08:01:27.400Z81.682° E
|